Regional Weather Roundup
Issued by NWS

Home | Current Version | Previous Version | Text Only | Print | Product List | Glossary Off
Versions: 1 2 3 4 5 6 7 8 9 10 11 12 13 14 15 16 17 18 19 20 21 22 23 24 25 26 27 28 29 30 31 32 33 34 35 36 37 38 39 40 41 42 43 44 45 46 47 48 49 50

000
ASUS44 KMEG 242000
RWRTN
TENNESSEE HOURLY STATE WEATHER ROUNDUP
NATIONAL WEATHER SERVICE MEMPHIS TN
300 PM CDT WED AUG 24 2016

TNZ002-004-019-021-049-052-054-088>092-242100-
WEST TENNESSEE

CITY           SKY/WX    TMP DP  RH WIND       PRES   REMARKS
MEMPHIS INTL   MOSUNNY   94  73  50 SW12G17   30.13F HX 103
NWS MEMPHIS      N/A     94 N/A N/A MISG        N/A
JACKSON        PTSUNNY   93  75  55 SW7       30.13F HX 104
DYERSBURG      MOSUNNY   95  75  52 MISG      30.11F HX 107
UNION CITY     MOSUNNY   91  79  66 S9        30.10F HX 107
PARIS          MOSUNNY   90  75  62 S13       30.13F HX 100
LEXINGTON      MOSUNNY   90  73  58 S8        30.14F HX  98
$$

TNZ008-025-027-028-033-062-065-066-242100-
NORTH MIDDLE TENNESSEE

CITY           SKY/WX    TMP DP  RH WIND       PRES   REMARKS
NASHVILLE      CLOUDY    91  71  51 S7        30.16F HX  97
CLARKSVILLE    MOSUNNY   89  74  60 S14G20    30.13F HX  98
SMYRNA         MOSUNNY   90  70  51 MISG      30.18F HX  95
COOKEVILLE     SUNNY     90  73  58 SW3       30.19F HX  98
CROSSVILLE     MOSUNNY   83  69  62 S5        30.25F
$$

TNZ061-075-076-078-094-096-097-242100-
SOUTH MIDDLE TENNESSEE

CITY           SKY/WX    TMP DP  RH WIND       PRES   REMARKS
SHELBYVILLE    MOSUNNY   91  73  55 W6        30.19F HX 100
$$

TNZ017-018-042-046-047-242100-
NORTHEAST TENNESSEE

CITY           SKY/WX    TMP DP  RH WIND       PRES   REMARKS
TRI CITIES     PTSUNNY   82  66  58 SE5       30.26F
$$

TNZ012-013-036-069-073-074-242100-
CENTRAL EAST TENNESSEE

CITY           SKY/WX    TMP DP  RH WIND       PRES   REMARKS
KNOXVILLE      PTSUNNY   88  69  53 SW8       30.20F HX  92
OAK RIDGE      MOSUNNY   89  70  53 VRB5      30.21F HX  94
GATLINBURG     PTSUNNY   88  70  55 VRB3      30.20F HX  92
$$

TNZ083-085-099-242100-
SOUTHEAST TENNESSEE

CITY           SKY/WX    TMP DP  RH WIND       PRES   REMARKS
CHATTANOOGA    CLOUDY    90  70  51 S5        30.19F HX  95
$$

SKY/WX REPORTED AS FAIR MEANS FEW OR NO CLOUDS BELOW
12 THOUSAND FEET.




USA.gov is the U.S. government's official web portal to all federal, state and local government web resources and services.